Weather History for Noatak, AK

Change the Weather History Date:

Friday, August 30, 2013

  Actual Average Record
Temperature  
Mean Temperature 36 °F -  
Max Temperature 42 °F 52 °F 80 °F (2007)
Min Temperature 30 °F 37 °F 30 °F (2013)
Degree Days  
Heating Degree Days 29    
Moisture  
Dew Point 29 °F    
Average Humidity 79    
Maximum Humidity 100    
Minimum Humidity 49    
Precipitation  
Precipitation 0.00 in - - ()
Sea Level Pressure  
Sea Level Pressure 29.97 in    
Wind  
Wind Speed 6 mph (West)    
Max Wind Speed 12 mph    
Max Gust Speed 17 mph    
Visibility 9 miles    
Events      
Averages and records for this station are not official NWS values.
T = Trace of Precipitation, MM = Missing Value Source: NWS Daily Summary

Daily Weather History Graph

Daily Weather History Graph

Search for Another Location

Airport:

Trip Planner

Search our weather history database for the weather conditions in past years. The results will help you decide how hot, cold, wet, or windy it might be!

Date:

Astronomy

Aug. 30, 2013 Rise Set
Actual Time 7:14 AM AKDT 10:27 PM AKDT
Civil Twilight 6:09 AM AKDT 11:31 PM AKDT
Nautical Twilight 4:20 AM AKDT 1:16 AM AKDT
Astronomical Twilight Sun does not rise Sun does not rise
Moon 12:13 AM AKDT (8/30) 8:30 PM AKDT (8/30)
Length of Visible Light 17h 22m
Length of Day
15h 12m
Waning Crescent, 28% of the Moon is Illuminated
Aug 30
Waning Crescent
Sep 5
New
Sep 12
First Quarter
Sep 19
Full
Sep 26
Last Quarter

Hourly Weather History & Observations

Time (AKDT) Temp. Windchill Dew Point Humidity Pressure Visibility Wind Dir Wind Speed Gust Speed Precip Events Conditions
12:16 AM 32.0 °F 25.6 °F 30.2 °F 93% 29.88 in 5.0 mi SSE 6.9 mph - N/A   Overcast
12:36 AM 32.0 °F 24.8 °F 30.2 °F 93% 29.87 in 10.0 mi SSE 8.1 mph - N/A   Overcast
12:56 AM 33.8 °F 27.7 °F 30.2 °F 87% 29.87 in 10.0 mi SSE 6.9 mph - N/A   Overcast
1:16 AM 33.8 °F 27.0 °F 30.2 °F 87% 29.86 in 10.0 mi SSE 8.1 mph - N/A   Overcast
1:36 AM 33.8 °F 27.7 °F 30.2 °F 87% 29.86 in 10.0 mi SSE 6.9 mph - N/A   Overcast
1:56 AM 33.8 °F 26.4 °F 30.2 °F 87% 29.86 in 10.0 mi South 9.2 mph - N/A   Overcast
2:16 AM 33.8 °F 25.8 °F 30.2 °F 87% 29.86 in 7.0 mi South 10.4 mph - N/A   Overcast
2:36 AM 33.8 °F 27.0 °F 30.2 °F 87% 29.86 in 10.0 mi South 8.1 mph - N/A   Overcast
2:56 AM 33.8 °F 26.4 °F 30.2 °F 87% 29.86 in 7.0 mi South 9.2 mph - N/A   Overcast
3:16 AM 32.0 °F 24.8 °F 30.2 °F 93% 29.86 in 5.0 mi SW 8.1 mph - N/A   Overcast
3:36 AM 32.0 °F 25.6 °F 30.2 °F 93% 29.88 in 3.0 mi SW 6.9 mph - N/A   Overcast
3:56 AM 32.0 °F 26.4 °F 30.2 °F 93% 29.87 in 3.0 mi WSW 5.8 mph - N/A   Overcast
4:16 AM 32.0 °F 26.4 °F 30.2 °F 93% 29.87 in 2.5 mi WSW 5.8 mph - N/A   Overcast
4:36 AM 32.0 °F 28.7 °F 30.2 °F 93% 29.88 in 1.5 mi West 3.5 mph - N/A   Overcast
4:56 AM 32.0 °F 28.7 °F 30.2 °F 93% 29.87 in 1.8 mi SSW 3.5 mph - N/A   Overcast
5:16 AM 32.0 °F - 30.2 °F 93% 29.87 in 10.0 mi Calm Calm - N/A   Scattered Clouds
5:36 AM 30.2 °F 24.3 °F 30.2 °F 100% 29.88 in 8.0 mi South 5.8 mph - N/A   Scattered Clouds
5:56 AM 30.2 °F 25.4 °F 30.2 °F 100% 29.88 in 10.0 mi SSW 4.6 mph - N/A   Partly Cloudy
6:16 AM 30.2 °F 24.3 °F 28.4 °F 93% 29.88 in 10.0 mi SSW 5.8 mph - N/A   Partly Cloudy
6:36 AM 30.2 °F 25.4 °F 28.4 °F 93% 29.89 in 10.0 mi SSW 4.6 mph - N/A   Mostly Cloudy
6:56 AM 30.2 °F - 28.4 °F 93% 29.89 in 10.0 mi Calm Calm - N/A   Mostly Cloudy
7:16 AM 30.2 °F - 26.6 °F 86% 29.90 in 1.0 mi Calm Calm - N/A   Mostly Cloudy
7:36 AM 30.2 °F - 28.4 °F 93% 29.91 in 1.5 mi Calm Calm - N/A   Overcast
7:56 AM 30.2 °F - 28.4 °F 93% 29.90 in 2.5 mi Calm Calm - N/A   Mostly Cloudy
8:16 AM 30.2 °F 24.3 °F 28.4 °F 93% 29.91 in 10.0 mi South 5.8 mph - N/A   Mostly Cloudy
8:36 AM 30.2 °F 25.4 °F 28.4 °F 93% 29.92 in 10.0 mi South 4.6 mph - N/A   Mostly Cloudy
8:56 AM 30.2 °F - 28.4 °F 93% 29.92 in 10.0 mi Calm Calm - N/A   Mostly Cloudy
9:16 AM 30.2 °F 25.4 °F 28.4 °F 93% 29.92 in 10.0 mi South 4.6 mph - N/A   Partly Cloudy
9:36 AM 32.0 °F - 30.2 °F 93% 29.94 in 10.0 mi Calm Calm - N/A   Mostly Cloudy
9:56 AM 32.0 °F - 30.2 °F 93% 29.93 in 0.5 mi Calm Calm - N/A   Overcast
10:16 AM 32.0 °F - 30.2 °F 93% 29.94 in 7.0 mi Calm Calm - N/A   Overcast
10:36 AM 32.0 °F - 30.2 °F 93% 29.96 in 5.0 mi Calm Calm - N/A   Mostly Cloudy
10:56 AM 33.8 °F 30.8 °F 30.2 °F 87% 29.95 in 10.0 mi South 3.5 mph - N/A   Mostly Cloudy
11:16 AM 33.8 °F 29.6 °F 30.2 °F 87% 29.96 in 10.0 mi South 4.6 mph - N/A   Overcast
11:36 AM 33.8 °F 28.6 °F 30.2 °F 87% 29.96 in 10.0 mi SSW 5.8 mph - N/A   Mostly Cloudy
11:56 AM 33.8 °F 27.0 °F 30.2 °F 87% 29.97 in 10.0 mi SW 8.1 mph - N/A   Partly Cloudy
12:16 PM 35.6 °F 28.6 °F 30.2 °F 81% 29.97 in 7.0 mi West 9.2 mph - N/A   Clear
12:36 PM 35.6 °F 27.5 °F 28.4 °F 75% 29.98 in 10.0 mi West 11.5 mph 17.3 mph N/A   Clear
12:56 PM 35.6 °F 27.5 °F 28.4 °F 75% 29.99 in 10.0 mi West 11.5 mph - N/A   Clear
1:16 PM 35.6 °F 28.0 °F 30.2 °F 81% 29.99 in 10.0 mi WNW 10.4 mph - N/A   Clear
1:36 PM 35.6 °F 29.2 °F 28.4 °F 75% 30.00 in 10.0 mi NNW 8.1 mph - N/A   Clear
1:56 PM 35.6 °F 29.9 °F 28.4 °F 75% 30.01 in 10.0 mi NW 6.9 mph - N/A   Clear
2:16 PM 37.4 °F 31.4 °F 30.2 °F 75% 30.01 in 10.0 mi NW 8.1 mph - N/A   Clear
2:36 PM 37.4 °F 33.8 °F 30.2 °F 75% 30.02 in 10.0 mi NNW 4.6 mph - N/A   Clear
2:56 PM 37.4 °F 33.8 °F 28.4 °F 70% 30.03 in 10.0 mi North 4.6 mph - N/A   Clear
3:16 PM 39.2 °F 33.6 °F 30.2 °F 70% 30.03 in 10.0 mi WNW 8.1 mph - N/A   Clear
3:36 PM 39.2 °F 35.0 °F 28.4 °F 65% 30.03 in 10.0 mi NNW 5.8 mph - N/A   Clear
3:56 PM 39.2 °F 33.6 °F 30.2 °F 70% 30.04 in 10.0 mi NW 8.1 mph - N/A   Clear
4:16 PM 39.2 °F 35.0 °F 28.4 °F 65% 30.05 in 10.0 mi WNW 5.8 mph - N/A   Clear
4:36 PM 39.2 °F 37.0 °F 28.4 °F 65% 30.05 in 10.0 mi NW 3.5 mph - N/A   Clear
4:56 PM 39.2 °F 34.2 °F 28.4 °F 65% 30.05 in 10.0 mi North 6.9 mph - N/A   Clear
5:16 PM 39.2 °F 33.6 °F 28.4 °F 65% 30.05 in 10.0 mi NNW 8.1 mph - N/A   Clear
5:36 PM 41.0 °F 35.2 °F 28.4 °F 61% 30.05 in 10.0 mi NW 9.2 mph - N/A   Clear
5:56 PM 41.0 °F 35.2 °F 28.4 °F 61% 30.05 in 10.0 mi NNW 9.2 mph - N/A   Clear
6:16 PM 41.0 °F 34.7 °F 26.6 °F 57% 30.05 in 10.0 mi WNW 10.4 mph - N/A   Clear
6:36 PM 41.0 °F 35.8 °F 26.6 °F 57% 30.05 in 10.0 mi NNW 8.1 mph - N/A   Clear
6:56 PM 41.0 °F 36.4 °F 26.6 °F 57% 30.05 in 10.0 mi NNW 6.9 mph - N/A   Clear
7:16 PM 42.8 °F 39.3 °F 26.6 °F 53% 30.05 in 10.0 mi NNW 5.8 mph - N/A   Clear
7:36 PM 42.8 °F 39.3 °F 24.8 °F 49% 30.06 in 10.0 mi North 5.8 mph - N/A   Clear
7:56 PM 41.0 °F 36.4 °F 24.8 °F 53% 30.06 in 10.0 mi NNW 6.9 mph - N/A   Clear
8:16 PM 41.0 °F 38.0 °F 24.8 °F 53% 30.05 in 10.0 mi North 4.6 mph - N/A   Clear
8:36 PM 41.0 °F - 24.8 °F 53% 30.05 in 10.0 mi Calm Calm - N/A   Clear
8:56 PM 41.0 °F 39.0 °F 24.8 °F 53% 30.05 in 10.0 mi NNE 3.5 mph - N/A   Clear
9:16 PM 41.0 °F - 24.8 °F 53% 30.05 in 10.0 mi Calm Calm - N/A   Clear
9:36 PM 39.2 °F - 24.8 °F 56% 30.05 in 10.0 mi Calm Calm - N/A   Clear
9:56 PM 39.2 °F - 24.8 °F 56% 30.06 in 10.0 mi Calm Calm - N/A   Clear
10:16 PM 39.2 °F - 24.8 °F 56% 30.06 in 10.0 mi Calm Calm - N/A   Clear
10:36 PM 37.4 °F 34.9 °F 26.6 °F 65% 30.06 in 10.0 mi ESE 3.5 mph - N/A   Clear
10:56 PM 35.6 °F 31.7 °F 26.6 °F 70% 30.06 in 10.0 mi WNW 4.6 mph - N/A   Clear
11:16 PM 32.0 °F 27.5 °F 26.6 °F 80% 30.07 in 10.0 mi NNW 4.6 mph - N/A   Clear
11:36 PM 32.0 °F 27.5 °F 28.4 °F 87% 30.06 in 10.0 mi NNW 4.6 mph - N/A   Clear
11:56 PM 30.2 °F 24.3 °F 26.6 °F 86% 30.07 in 10.0 mi North 5.8 mph - N/A   Clear